(327571) = 2006 DT40 = 2009 UX83

Discovered at Catalina on 2006-02-22 by CSS.

Orbit

Orbit type: Main Belt

Note: WebGL enabled browser required.

epoch2024-03-31.0
epoch JD2460400.5
perihelion date2023-09-19.15005
perihelion JD2460206.65005
argument of perihelion (°)188.56736
ascending node (°)77.42372
inclination (°)5.45642
eccentricity0.0117431
perihelion distance (AU)3.0238001
Tisserand w.r.t. Jupiter3.2
ΔV w.r.t. Earth (km/sec)10.9
semimajor axis (AU)3.0597307
mean anomaly (°)35.69807
mean daily motion (°/day)0.18415310
aphelion distance (AU)3.096
period (years)5.35
P-vector [x]-0.07057056
P-vector [y]-0.90946757
P-vector [z]-0.40974203
Q-vector [x]0.99318006
Q-vector [y]-0.02584567
Q-vector [z]-0.11368977
absolute magnitude16.0
phase slope0.15
uncertainty0
referenceMPEC 2024-E34
observations used347
oppositions14
arc length (days)10794
first opposition used1993
last opposition used2023
residual rms (arc-secs)0.70
perturbers coarse indicatorM-v
perturbers precise indicator003Ek
first observation date used1993-12-17.0
last observation date used2023-07-07.0
computer nameMPCLINUX
JD of orbit computation2456966.800065
perihelion JD uncertainty (days)8.7486E-04
argument of perihelion uncertainty (°)1.6765E-04
ascending node uncertainty (°)4.0177E-05
inclination uncertainty (°)4.2181E-06
eccentricity uncertainty 3.7340E-08
perihelion distance uncertainty (AU)1.0705E-07
Minimum Orbit Intersection Distances (in AU)
for orbit epoch: 2460400.5, reference: E2024-E34
Mercury2.55836
Venus2.29695
Earth2.00789
Mars1.41009
Jupiter1.88964
Saturn5.9499
Uranus15.3841
Neptune26.7421

Observations

355 total observations over interval: 1993 12 17.10545 – 2023 07 07.356646
These data are available for download (format description).

Date (UT) J2000 RA J2000 Dec Magn Location Ref
1993 12 17.10545 03 50 54.50 +18 41 52.7 20.4 V 691 – Steward Observatory, Kitt Peak-Spacewatch MPS 367037
1993 12 17.13990 03 50 53.05 +18 41 52.1   691 – Steward Observatory, Kitt Peak-Spacewatch MPS 367037
1993 12 17.17479 03 50 51.56 +18 41 51.4   691 – Steward Observatory, Kitt Peak-Spacewatch MPS 367037
2004 12 11.22866 05 49 08.28 +24 26 09.9 20.2 V 691 – Steward Observatory, Kitt Peak-Spacewatch MPS 300726
2004 12 11.25502 05 49 06.76 +24 26 12.2 20.3 V 691 – Steward Observatory, Kitt Peak-Spacewatch MPS 300726
2004 12 11.29180 05 49 04.69 +24 26 14.8 20.0 V 691 – Steward Observatory, Kitt Peak-Spacewatch MPS 300726
2006 02 22.35861 11 26 46.46 +12 11 44.3 19.9 V 703 – Catalina Sky Survey MPS 165243
2006 02 22.36904 11 26 45.78 +12 11 50.4 19.9 V 703 – Catalina Sky Survey MPS 165243
2006 02 22.38559 11 26 45.31 +12 11 52.8 19.3 V 703 – Catalina Sky Survey MPS 165243
2006 02 22.40200 11 26 44.59 +12 11 59.2 20.1 V 703 – Catalina Sky Survey MPS 165243
2006 02 24.36710 11 25 21.64 +12 22 38.4 20.5 V G96 – Mt. Lemmon Survey MPS 165243
2006 02 24.37498 11 25 21.28 +12 22 40.6 20.5 V G96 – Mt. Lemmon Survey MPS 165243
2006 02 24.38281 11 25 20.96 +12 22 43.3 20.5 V G96 – Mt. Lemmon Survey MPS 165243
2006 02 24.39068 11 25 20.60 +12 22 45.6 20.4 V G96 – Mt. Lemmon Survey MPS 165243
2006 02 25.30314 11 24 41.36 +12 27 41.9 20.6 V G96 – Mt. Lemmon Survey MPS 165243
2006 02 25.30970 11 24 41.07 +12 27 43.8 20.3 V G96 – Mt. Lemmon Survey MPS 165243
2006 02 25.31616 11 24 40.78 +12 27 46.0 20.5 V G96 – Mt. Lemmon Survey MPS 165243
2006 02 25.32289 11 24 40.46 +12 27 48.7 20.1 V G96 – Mt. Lemmon Survey MPS 165243
2006 03 04.21972 11 19 29.53 +13 04 21.4   691 – Steward Observatory, Kitt Peak-Spacewatch MPS 166229
2006 03 04.23703 11 19 28.72 +13 04 27.0   691 – Steward Observatory, Kitt Peak-Spacewatch MPS 166229
2006 03 04.25435 11 19 27.90 +13 04 32.2   691 – Steward Observatory, Kitt Peak-Spacewatch MPS 166229
2009 10 23.42276 04 05 29.90 +17 33 47.0 20.4 V G96 – Mt. Lemmon Survey MPS 300940
2009 10 23.43034 04 05 29.65 +17 33 46.6 20.2 V G96 – Mt. Lemmon Survey MPS 300940
2009 10 23.43777 04 05 29.36 +17 33 46.4 20.2 V G96 – Mt. Lemmon Survey MPS 300940
2009 10 23.44539 04 05 29.07 +17 33 46.1 20.5 V G96 – Mt. Lemmon Survey MPS 300940
2009 10 25.43072 04 04 19.73 +17 31 55.1   691 – Steward Observatory, Kitt Peak-Spacewatch MPS 300940
2009 10 25.44790 04 04 19.06 +17 31 54.6   691 – Steward Observatory, Kitt Peak-Spacewatch MPS 300940
2009 10 25.46509 04 04 18.40 +17 31 53.6   691 – Steward Observatory, Kitt Peak-Spacewatch MPS 300940
2009 11 08.21145 03 54 25.90 +17 15 43.0 20.6 V 691 – Steward Observatory, Kitt Peak-Spacewatch MPS 302211
2009 11 08.22864 03 54 25.06 +17 15 41.6 20.5 V 691 – Steward Observatory, Kitt Peak-Spacewatch MPS 302211
2009 11 08.24583 03 54 24.18 +17 15 40.4 20.4 V 691 – Steward Observatory, Kitt Peak-Spacewatch MPS 302211
2009 11 18.95822 03 45 14.01 +17 00 37.3 18.6 R 185 – Observatoire Astronomique Jurassien-Vicques MPS 303346
2009 11 18.97154 03 45 13.33 +17 00 37.2 19.2 R 185 – Observatoire Astronomique Jurassien-Vicques MPS 303346
2009 11 23.25204 03 41 28.03 +16 54 38.9 19.9 V G96 – Mt. Lemmon Survey MPS 304966
2009 11 23.25790 03 41 27.74 +16 54 38.5 20.0 V G96 – Mt. Lemmon Survey MPS 304966
2009 11 23.26366 03 41 27.42 +16 54 38.0 19.8 V G96 – Mt. Lemmon Survey MPS 304967
2009 11 23.26948 03 41 27.09 +16 54 37.5 20.1 V G96 – Mt. Lemmon Survey MPS 304967
2010 02 06.75710 03 24 17.87 +18 00 34.6   C51 – WISE MPS 333591
2010 02 06.889406 03 24 22.51 +18 01 00.1   C51 – WISE MPS 333591
2010 02 07.021711 03 24 26.97 +18 01 28.5   C51 – WISE MPS 333591
2010 02 07.154015 03 24 31.60 +18 01 56.4   C51 – WISE MPS 333591
2010 02 07.220230 03 24 33.89 +18 02 09.2   C51 – WISE MPS 333591
2010 02 07.286446 03 24 36.19 +18 02 22.3   C51 – WISE MPS 333591
2010 02 07.35254 03 24 38.71 +18 02 34.9   C51 – WISE MPS 333591
2010 02 07.484839 03 24 43.255 +18 03 06.91   C51 – WISE MPS 904072
2010 02 07.484966 03 24 43.33 +18 03 04.5   C51 – WISE MPS 333591
2010 02 07.617270 03 24 48.05 +18 03 30.7   C51 – WISE MPS 333591
2010 02 07.749574 03 24 52.62 +18 04 01.0   C51 – WISE MPS 333591
2010 02 07.881878 03 24 57.355 +18 04 29.46   C51 – WISE MPS 904072
2011 02 07.34581 09 23 36.20 +22 30 56.8 20.3 V G96 – Mt. Lemmon Survey MPS 369529
2011 02 07.35308 09 23 35.84 +22 30 58.8 20.1 V G96 – Mt. Lemmon Survey MPS 369529
2011 02 07.36035 09 23 35.44 +22 31 00.6 20.1 V G96 – Mt. Lemmon Survey MPS 369529
2011 02 07.36758 09 23 35.08 +22 31 02.7 20.1 V G96 – Mt. Lemmon Survey MPS 369529
2012 03 29.43596 14 53 42.10 -11 00 55.9 21.0 V G96 – Mt. Lemmon Survey MPS 418477
2012 03 29.44281 14 53 41.89 -11 00 55.3 20.4 V G96 – Mt. Lemmon Survey MPS 418477
2012 03 29.44966 14 53 41.71 -11 00 53.8 20.4 V G96 – Mt. Lemmon Survey MPS 418477
2012 03 29.45651 14 53 41.60 -11 00 53.7 20.9 V G96 – Mt. Lemmon Survey MPS 418477
2012 03 30.38039 14 53 17.46 -10 58 57.1   691 – Steward Observatory, Kitt Peak-Spacewatch MPS 418477
2012 03 30.39816 14 53 17.01 -10 58 55.2   691 – Steward Observatory, Kitt Peak-Spacewatch MPS 418477
2012 03 30.41594 14 53 16.44 -10 58 52.4   691 – Steward Observatory, Kitt Peak-Spacewatch MPS 418477
2012 04 16.34606 14 43 07.94 -10 16 13.3 20.3 V 691 – Steward Observatory, Kitt Peak-Spacewatch MPS 420834
2012 04 16.36461 14 43 07.09 -10 16 10.3 20.6 V 691 – Steward Observatory, Kitt Peak-Spacewatch MPS 420834
2012 04 16.38315 14 43 06.25 -10 16 07.2 20.5 V 691 – Steward Observatory, Kitt Peak-Spacewatch MPS 420834
2012 04 19.33639 14 40 54.62 -10 07 50.3   691 – Steward Observatory, Kitt Peak-Spacewatch MPS 420834
2012 04 19.35492 14 40 53.75 -10 07 47.4   691 – Steward Observatory, Kitt Peak-Spacewatch MPS 420834
2012 04 19.37347 14 40 52.87 -10 07 44.4   691 – Steward Observatory, Kitt Peak-Spacewatch MPS 420834
2012 04 23.31487 14 37 49.85 -09 56 40.2 20.3 V 691 – Steward Observatory, Kitt Peak-Spacewatch MPS 421879
2012 04 23.33344 14 37 48.95 -09 56 37.1 20.3 V 691 – Steward Observatory, Kitt Peak-Spacewatch MPS 421879
2012 04 23.35200 14 37 48.06 -09 56 33.9 20.2 V 691 – Steward Observatory, Kitt Peak-Spacewatch MPS 421879
2012 04 24.37311 14 36 59.54 -09 53 43.1 20.4 V 691 – Steward Observatory, Kitt Peak-Spacewatch MPS 421879
2012 04 24.39167 14 36 58.64 -09 53 39.6 20.1 V 691 – Steward Observatory, Kitt Peak-Spacewatch MPS 421879
2012 04 24.41021 14 36 57.76 -09 53 37.0 20.2 V 691 – Steward Observatory, Kitt Peak-Spacewatch MPS 421879
2012 04 27.31742 14 34 38.35 -09 45 35.8 20.0 V 691 – Steward Observatory, Kitt Peak-Spacewatch MPS 421879
2012 04 27.33592 14 34 37.43 -09 45 32.9 20.3 V 691 – Steward Observatory, Kitt Peak-Spacewatch MPS 421879
2012 04 27.35442 14 34 36.49 -09 45 29.9 20.0 V 691 – Steward Observatory, Kitt Peak-Spacewatch MPS 421879
2012 04 27.40868 14 34 33.998 -09 45 20.62 19.8 i F51 – Pan-STARRS 1, Haleakala MPS 422838
2012 04 27.42001 14 34 33.434 -09 45 18.76 19.8 i F51 – Pan-STARRS 1, Haleakala MPS 422838
2012 04 27.44826 14 34 32.022 -09 45 14.18 20.0 w F51 – Pan-STARRS 1, Haleakala MPS 422838
2012 04 27.46325 14 34 31.271 -09 45 11.74 20.0 w F51 – Pan-STARRS 1, Haleakala MPS 422838
2012 04 27.47828 14 34 30.523 -09 45 09.35 20.0 w F51 – Pan-STARRS 1, Haleakala MPS 422838
2012 04 28.37768 14 33 46.99 -09 42 44.1 20.2 V 691 – Steward Observatory, Kitt Peak-Spacewatch MPS 422838
2012 04 28.39619 14 33 46.04 -09 42 40.9 20.2 V 691 – Steward Observatory, Kitt Peak-Spacewatch MPS 422838
2012 04 28.40484 14 33 45.818 -09 42 38.81 19.9 i F51 – Pan-STARRS 1, Haleakala MPS 422838
2012 04 28.41469 14 33 45.15 -09 42 38.0 20.3 V 691 – Steward Observatory, Kitt Peak-Spacewatch MPS 422838
2012 04 28.41630 14 33 45.249 -09 42 36.88 19.8 i F51 – Pan-STARRS 1, Haleakala MPS 422838
2012 05 21.35214 14 16 28.672 -08 55 29.34 20.4 w F51 – Pan-STARRS 1, Haleakala MPS 425973
2012 05 21.36665 14 16 28.094 -08 55 28.34 20.4 w F51 – Pan-STARRS 1, Haleakala MPS 425973
2012 05 21.38115 14 16 27.516 -08 55 27.34 20.4 w F51 – Pan-STARRS 1, Haleakala MPS 425973
2012 05 21.39568 14 16 26.941 -08 55 26.29 20.4 w F51 – Pan-STARRS 1, Haleakala MPS 425973
